Location: Ahausen
(50.4985°N, 8.2722°E)
Time: 01:08:59
(UTC+00:00)

SJ-6B - Pass Details

Date: 18 September 2020
Orbit: 511 x 580 km, 97.6° (Epoch: 23 October)

Event Time Altitude Azimuth Distance (km) Brightness Sun altitude
Exits shadow 19:21:16 16° 179° (S) 1,391 4.6 -17.4°
Maximum altitude 19:24:07 64° 258° (WSW) 576 3.0 -17.8°
Drops below altitude 10° 19:27:53 10° 341° (NNW) 1,757 6.0 -18.4°
Sets 19:30:01 0° 344° (NNW) 2,657 7.0 -18.7°
